Wind_Speed
97 93 88 84 82 82 82 83 84 85 87 90 91 90 89 88 89 90 91 91 92 93 93 94 94 95 95 96 97 98 99 99 100 100 101 101 102 102 103 103 103 103 104 104 104 104 105 105 105 106 106 107 106 106 106 106 105 105 105 105 105 105 105 106 106 107 107 107 108 108 107 107 106 106 104 103 102 100 97 95 93 91 89 87 85 83
98 94 87 82 80 80 81 83 84 85 87 88 89 89 88 88 88 90 90 91 91 92 93 93 94 94 95 96 97 98 99 100 100 101 101 102 102 103 103 104 104 104 104 104 105 105 105 106 106 106 106 106 106 106 106 106 106 105 105 105 106 106 106 107 107 108 108 108 108 107 107 106 105 104 103 101 99 97 95 93 91 89 87 85 83 81
99 96 89 82 79 79 81 82 83 84 85 86 87 88 88 88 88 89 89 90 91 91 92 93 93 94 94 95 96 97 98 99 99 100 101 101 102 102 103 103 104 104 104 105 105 105 105 106 106 106 107 107 107 107 107 106 106 106 106 106 107 107 107 108 108 108 108 108 107 106 106 105 103 102 101 99 97 95 93 91 88 86 84 82 80 79
98 96 90 83 80 80 81 81 82 82 83 84 85 86 87 87 88 88 89 89 90 91 91 92 92 93 94 94 95 96 96 97 98 99 100 101 101 102 103 103 104 104 105 105 105 106 106 107 107 107 107 107 108 108 107 107 107 107 107 108 108 108 108 108 108 107 107 106 105 104 103 102 101 99 98 96 94 92 90 88 86 84 82 80 78 76
97 95 89 84 82 81 81 80 80 80 81 82 83 84 86 87 87 88 89 89 89 90 91 91 92 93 94 94 95 95 96 97 98 99 99 100 101 102 103 104 104 105 105 106 106 107 107 107 108 108 108 108 108 108 108 108 108 108 108 108 108 108 108 107 107 106 105 104 103 102 101 99 98 96 94 93 91 89 87 85 83 81 79 77 76 75
94 92 88 86 84 82 79 78 78 78 79 80 82 84 85 86 87 88 89 89 89 90 91 91 92 93 94 95 95 96 97 98 98 99 100 101 102 103 104 104 105 106 106 107 107 107 108 108 108 109 109 109 109 109 109 109 108 108 108 107 107 107 106 105 104 104 103 101 100 99 98 96 94 93 91 89 87 85 83 82 80 78 77 76 75 74
90 89 88 87 83 79 76 75 75 76 78 80 82 83 85 86 87 88 88 89 89 90 91 92 93 94 95 96 96 97 98 99 99 100 101 102 103 104 104 105 106 106 107 107 107 108 108 108 108 109 109 109 108 108 108 108 107 107 106 106 105 104 104 103 102 101 100 98 97 96 94 92 91 89 87 85 84 82 81 79 78 77 76 76 75 75
85 86 87 86 81 76 72 72 74 75 77 79 81 83 85 86 87 87 88 88 89 90 91 92 93 94 95 96 97 98 99 99 100 101 102 103 104 104 105 105 106 106 107 107 107 107 107 108 108 108 108 108 107 107 106 106 105 105 104 103 103 102 101 100 99 97 96 95 93 92 90 89 87 85 84 82 81 80 79 78 78 77 77 76 76 76
80 82 84 83 79 74 72 72 73 75 76 79 81 82 84 85 86 86 87 88 89 90 91 92 94 95 96 96 97 98 98 99 100 101 102 102 103 104 104 105 105 105 106 106 106 106 106 106 106 106 106 105 105 104 104 103 103 102 101 100 100 98 97 96 95 94 92 91 89 88 86 85 84 83 81 81 80 79 79 79 78 78 78 78 78 77
73 76 79 78 77 74 72 72 73 74 75 77 78 80 82 83 84 85 85 86 87 88 89 91 92 93 94 95 95 96 97 97 98 99 100 100 101 101 102 102 103 103 103 103 103 103 103 103 103 103 102 102 101 101 100 100 99 99 98 97 96 95 93 92 91 89 88 87 86 84 83 82 82 81 81 80 80 80 80 80 80 80 79 79 79 79
65 69 71 73 73 72 71 71 71 71 72 74 75 77 78 79 81 82 83 84 85 86 87 88 89 90 91 91 92 92 93 94 95 96 96 97 97 98 98 99 99 99 99 99 100 99 99 99 99 99 98 98 97 97 97 96 95 94 93 92 91 90 89 88 87 86 85 84 83 82 82 82 81 81 81 81 81 81 81 81 81 81 81 81 80 80
57 60 63 65 67 67 68 68 67 68 68 70 72 73 74 76 77 78 80 81 82 83 84 85 85 86 87 88 88 89 89 90 91 92 92 93 93 93 94 94 95 95 95 95 95 95 95 95 95 95 94 94 93 93 92 91 91 90 89 88 87 86 85 84 84 83 83 82 82 82 82 82 82 82 82 82 82 82 82 82 82 82 82 82 82 82
50 53 56 58 60 62 63 63 64 64 65 66 68 69 71 72 73 74 76 77 78 79 80 81 81 82 82 83 84 84 85 86 87 87 88 88 88 89 89 90 90 90 90 90 91 91 90 90 90 90 89 89 89 88 87 86 86 85 84 84 83 83 83 82 82 82 82 82 82 83 83 83 83 83 83 84 84 84 84 84 84 84 84 84 84 84
44 47 49 52 54 56 57 58 59 60 61 62 63 64 66 67 68 69 71 72 73 74 74 75 76 77 77 78 78 79 81 82 82 83 83 83 84 84 85 85 86 86 86 86 87 86 86 86 86 85 85 84 84 83 83 83 82 82 82 82 82 82 82 82 82 82 83 83 83 83 84 84 84 84 85 85 85 85 85 85 85 85 85 86 86 86
38 41 43 45 48 49 51 52 54 55 56 57 58 59 60 61 63 64 65 67 68 68 69 70 71 72 72 73 73 75 76 77 78 79 79 79 80 80 81 82 82 82 82 82 83 82 82 82 81 81 81 81 81 80 81 81 81 81 81 81 82 82 82 82 83 83 83 84 84 84 85 85 85 85 86 86 86 86 87 87 87 87 87 87 88 88
34 36 38 40 42 44 45 47 48 50 51 52 53 54 55 57 58 59 60 62 62 63 64 66 67 68 68 68 69 70 72 73 74 75 75 76 76 77 77 78 78 79 79 79 79 79 79 79 79 79 79 79 80 80 80 80 81 81 81 82 82 82 83 83 83 84 84 84 85 85 86 86 86 87 87 87 88 88 88 88 89 89 89 89 89 90
33 34 36 37 39 40 41 42 44 45 47 48 49 50 52 53 54 55 56 57 59 60 61 62 63 64 65 65 66 67 68 69 71 72 72 73 74 74 74 75 76 77 77 77 78 78 78 78 79 79 79 80 80 80 80 81 81 81 82 82 82 83 83 83 84 84 85 85 86 86 87 87 88 88 88 89 89 89 90 90 90 90 91 91 91 91
33 34 35 36 38 38 40 41 42 43 44 46 47 48 49 50 51 52 54 55 56 58 59 59 61 62 63 65 65 65 66 68 69 70 71 73 74 74 74 75 76 77 78 78 78 79 79 79 79 80 80 80 80 81 81 81 81 82 82 82 83 83 84 84 85 85 86 86 87 87 88 89 89 89 90 90 91 91 91 91 92 92 92 92 92 92
36 36 37 38 39 40 41 42 43 44 45 46 47 48 50 51 52 53 54 55 57 58 59 61 62 63 64 66 67 67 67 68 70 71 72 74 75 75 75 76 77 78 79 79 79 79 80 80 80 80 80 80 81 81 81 82 82 82 83 83 84 84 85 85 86 86 87 88 88 89 89 90 90 91 91 92 92 92 92 92 92 92 92 92 92 92
38 39 39 40 41 42 43 44 45 46 47 48 49 50 52 53 54 55 56 57 58 59 60 62 63 64 65 67 68 68 69 70 71 72 74 75 76 76 77 77 78 79 80 80 80 80 80 80 81 81 81 81 81 82 82 83 83 83 84 84 85 85 86 87 87 88 88 89 90 90 91 91 91 92 92 92 92 92 92 92 92 92 92 91 91 91
40 41 41 42 43 44 45 46 47 48 49 50 51 52 53 54 55 56 57 58 59 60 61 63 64 65 66 68 69 70 70 71 73 74 75 76 77 78 78 79 79 80 81 81 81 81 81 82 82 82 82 82 83 83 83 84 84 85 85 86 86 87 87 88 88 89 89 90 90 91 91 91 91 91 91 91 91 91 91 91 90 90 90 89 89 89
41 42 42 43 44 45 47 48 48 49 50 51 52 54 55 56 57 58 59 60 61 62 63 65 66 67 68 69 71 72 72 73 75 76 77 78 79 79 79 80 81 82 82 83 83 82 83 83 83 83 83 84 84 85 85 85 86 86 86 87 87 87 88 88 88 89 89 89 90 90 90 90 90 90 90 90 90 89 89 89 88 88 87 87 86 86
43 43 44 45 46 47 48 49 50 51 52 53 54 55 56 57 58 60 61 61 62 64 65 66 67 68 69 70 71 73 74 75 76 77 78 79 80 81 80 81 82 83 84 84 84 84 84 85 85 85 85 85 86 86 86 86 86 87 87 87 87 87 87 87 88 88 88 88 88 88 88 88 88 88 88 88 88 88 87 87 86 86 85 84 84 83
46 46 47 48 49 49 50 51 52 53 54 55 56 57 58 59 60 61 62 63 64 65 66 67 68 69 70 71 73 74 75 76 77 78 80 81 82 82 82 83 84 85 85 86 86 86 86 86 86 86 86 86 86 86 86 86 86 86 86 86 86 86 86 86 86 86 86 86 86 87 87 87 86 86 86 86 86 86 86 85 84 83 83 82 81 80
50 50 51 52 52 53 54 55 56 57 58 59 60 61 61 62 64 65 66 67 68 68 69 70 72 73 74 74 75 77 78 79 80 81 82 83 84 85 85 85 86 87 88 87 87 87 87 87 87 86 86 86 86 86 86 86 85 85 85 85 85 85 85 85 85 85 85 85 85 85 85 85 85 85 85 85 85 84 84 83 82 81 80 79 78 77
53 53 54 55 56 57 58 59 60 61 62 63 64 65 66 67 68 69 70 71 71 72 73 74 75 76 77 77 78 80 81 81 82 83 84 86 86 87 86 86 87 88 89 89 88 88 88 88 87 87 86 86 85 85 85 84 84 84 84 84 84 84 84 84 84 84 84 84 84 84 84 84 83 83 83 83 82 82 81 80 79 78 77 76 75 74
55 55 56 57 58 59 60 61 62 63 64 65 66 67 68 69 70 72 73 73 74 75 76 77 78 79 79 79 80 81 82 83 84 84 85 86 87 88 87 87 87 88 89 89 89 88 88 88 87 86 86 85 85 84 84 83 83 83 83 83 83 83 83 83 84 84 83 83 83 83 82 82 81 81 80 80 79 79 78 77 75 74 73 72 71 71
57 58 58 59 60 61 62 63 64 65 66 67 68 69 70 71 72 74 75 75 76 76 77 78 79 80 80 81 81 82 82 83 84 84 84 85 86 87 87 86 87 87 88 89 89 88 88 87 87 86 86 85 84 83 83 83 82 82 82 82 82 82 82 82 82 82 82 81 81 80 79 79 78 78 77 76 76 75 74 73 72 71 70 69 68 68
59 60 61 61 62 63 64 65 66 67 68 69 70 71 72 72 74 75 76 76 77 77 78 79 79 80 80 80 81 81 82 82 83 83 83 84 85 85 85 85 86 86 87 88 88 88 88 87 87 86 86 85 84 83 83 82 82 81 81 81 81 81 80 80 80 80 79 78 77 76 76 75 74 74 73 73 72 71 70 69 68 67 67 66 65 65
61 62 63 64 64 65 66 67 68 69 70 71 71 72 73 73 74 75 76 76 76 77 78 78 78 79 79 79 79 80 80 81 81 81 81 82 83 84 84 84 85 85 86 87 88 89 89 87 86 86 85 84 83 82 82 81 80 80 79 79 78 78 77 77 76 76 75 74 73 72 72 71 71 70 70 69 69 68 67 66 65 64 63 63 62 62
63 64 65 66 66 67 68 69 70 70 71 71 72 72 73 73 74 74 74 75 75 76 76 76 77 77 77 77 78 78 79 79 79 80 80 81 82 83 83 84 85 85 85 86 88 89 89 88 87 85 84 83 82 81 80 79 78 77 76 76 75 74 73 73 72 71 71 70 69 68 68 67 67 67 67 66 65 65 64 63 62 61 60 60 59 59
64 65 66 67 68 69 69 70 71 71 71 72 72 72 72 72 73 73 73 73 73 74 74 75 75 75 75 76 76 77 78 79 79 79 80 81 82 83 83 84 84 85 85 85 86 88 89 88 87 85 83 82 80 79 77 75 74 73 72 71 71 70 69 68 68 67 66 66 65 65 64 64 64 64 63 63 62 61 60 59 59 58 57 57 57 56
66 67 68 69 69 70 70 70 71 71 71 71 71 71 71 71 71 71 71 72 72 72 73 73 74 74 75 75 76 77 77 78 79 79 80 81 82 83 83 83 84 84 84 84 85 85 86 86 86 84 82 80 78 76 74 72 70 69 68 67 66 65 64 64 63 63 62 62 61 61 61 61 61 60 60 59 59 58 57 56 56 55 55 55 54 54
68 69 69 70 70 70 70 70 70 70 70 70 70 70 70 70 70 70 70 71 71 71 72 73 73 74 75 75 76 77 77 78 78 79 79 80 81 82 82 82 82 82 83 83 82 82 82 83 82 81 80 77 75 73 70 68 67 65 64 63 62 61 60 60 59 59 59 58 58 58 58 58 57 57 56 56 55 55 54 54 53 53 53 52 52 52
69 69 70 70 70 70 70 70 69 69 69 69 68 68 68 69 69 69 70 70 71 71 72 73 73 74 75 75 76 77 77 77 78 78 79 79 80 80 80 80 80 80 80 80 80 79 79 79 78 77 76 74 72 70 67 65 64 62 60 59 58 57 57 56 55 55 55 55 55 55 54 54 54 54 53 53 52 52 52 51 51 51 51 51 51 50
70 70 70 70 70 69 69 69 68 68 67 67 67 67 68 68 68 69 70 70 71 72 72 73 73 74 74 75 75 76 76 77 77 77 77 78 78 78 78 78 77 77 77 76 76 76 75 74 73 72 71 70 69 67 64 62 61 59 57 56 55 54 53 52 52 52 52 52 52 52 51 51 51 50 50 50 49 49 49 50 50 50 50 49 50 50
70 70 70 69 69 68 68 68 67 67 66 67 67 67 67 68 68 69 70 71 71 72 73 73 73 74 74 74 74 75 75 75 75 75 75 75 75 75 75 74 74 73 73 72 72 72 71 70 69 68 67 66 65 64 62 60 58 56 54 53 52 50 50 49 49 49 49 49 49 49 49 48 48 48 47 47 47 47 48 48 48 48 49 49 49 50
70 70 69 69 68 68 67 67 66 66 66 66 67 67 68 68 69 70 70 71 72 72 73 73 73 73 73 73 73 73 73 73 73 73 73 72 72 72 71 71 70 69 69 68 68 68 67 66 65 64 63 62 62 60 59 57 55 53 51 50 48 47 46 46 46 46 47 47 47 47 46 46 46 45 45 45 45 46 47 47 47 48 48 49 49 49
70 70 69 68 67 67 67 66 66 66 67 67 68 68 69 69 70 70 71 71 72 72 72 72 72 72 72 71 71 70 70 70 70 70 69 69 68 68 67 67 66 66 65 65 64 64 63 62 62 61 60 59 58 57 56 54 52 50 49 47 46 44 43 43 43 44 44 45 45 45 44 44 43 43 43 44 44 45 46 46 47 47 48 49 49 49
70 69 68 68 67 67 67 67 67 67 68 68 69 69 70 70 71 71 71 71 72 72 72 71 71 70 70 69 68 68 67 67 67 66 66 65 64 64 63 63 63 62 62 61 61 60 60 59 58 57 57 56 55 54 53 51 49 47 46 45 44 42 41 41 41 42 42 43 43 43 43 42 42 42 43 43 44 44 45 45 46 47 48 48 48 48
70 69 68 68 67 67 67 67 68 68 69 69 70 70 71 71 71 71 71 71 71 71 70 70 69 68 67 66 65 64 64 63 63 62 62 61 61 60 59 59 59 59 59 58 58 57 56 56 55 54 53 53 52 51 49 48 46 45 44 43 42 41 40 39 39 40 41 42 42 42 42 42 42 42 43 43 44 44 44 45 46 46 47 47 47 47
69 69 68 68 68 68 68 68 69 69 70 70 71 71 71 71 71 71 71 70 70 69 68 67 67 66 64 63 62 61 60 60 59 59 58 58 57 56 56 56 56 56 55 55 55 54 53 53 52 51 50 49 48 47 46 45 44 42 42 41 41 40 39 38 38 38 39 40 41 41 41 41 42 43 43 43 44 44 44 45 45 46 46 46 45 45
69 69 68 68 68 68 69 69 70 70 70 71 71 71 71 71 70 70 69 68 68 67 66 65 64 63 62 60 59 58 57 56 56 55 55 54 53 53 53 53 52 53 53 52 52 52 51 50 49 48 47 46 45 44 43 42 42 41 40 40 40 40 39 38 38 38 39 39 39 40 40 41 42 43 43 43 43 43 43 44 44 44 44 44 43 42
69 69 68 69 69 69 69 70 70 71 71 71 71 71 70 69 69 68 67 66 65 64 63 62 61 60 59 58 57 55 54 53 53 52 51 50 50 49 49 49 49 50 50 50 50 49 49 48 47 45 44 43 42 42 41 41 40 40 40 39 40 40 40 39 39 38 38 39 39 39 40 42 43 43 43 42 42 42 42 42 42 42 42 41 40 39
69 69 69 69 69 69 70 70 71 71 71 71 70 70 69 68 67 66 65 63 62 61 60 59 58 57 56 55 54 53 52 51 49 48 47 47 46 46 46 46 47 47 47 47 47 47 47 46 45 43 42 41 40 40 39 39 39 39 39 39 40 40 40 40 39 39 39 38 39 39 40 42 42 42 42 42 41 41 40 40 40 40 39 39 38 37
69 69 69 69 69 70 70 71 71 71 71 70 69 68 67 65 64 63 62 61 60 59 58 57 56 55 54 53 52 51 50 49 47 46 44 44 43 43 43 43 44 44 45 45 45 45 45 44 43 42 41 40 39 38 38 38 39 39 39 40 40 40 40 40 40 39 39 39 39 39 40 41 41 41 41 40 39 39 38 38 37 37 37 36 36 35
69 69 69 70 70 70 71 71 71 71 70 69 67 66 64 63 62 60 59 58 57 56 56 54 54 53 52 51 50 50 48 47 45 43 42 41 40 40 40 41 41 42 43 43 43 44 43 43 42 41 40 39 38 38 38 38 38 39 40 40 41 41 41 40 40 39 39 39 39 39 40 40 40 40 39 38 37 36 36 35 34 34 34 34 34 34
69 70 70 70 70 71 71 71 70 70 69 67 65 63 62 60 59 58 57 56 55 55 54 53 52 51 50 49 49 48 47 46 44 42 40 39 38 38 38 38 39 40 41 41 42 42 42 42 41 40 39 38 38 38 38 38 38 38 39 40 41 41 41 40 40 39 38 38 39 39 39 39 39 38 37 36 35 34 33 32 32 32 32 33 33 33
70 70 71 71 71 71 71 71 70 69 67 65 63 61 59 58 57 56 55 55 54 53 52 51 51 50 49 48 47 46 45 44 43 41 39 38 37 36 36 37 37 38 39 40 40 41 41 41 40 39 38 38 37 37 37 37 38 38 39 40 41 41 41 40 39 38 38 38 38 38 38 38 37 36 35 34 33 32 30 30 30 30 31 31 32 32
71 71 71 71 72 72 71 70 69 67 65 63 61 59 58 56 55 54 54 53 53 52 51 50 49 49 48 47 46 45 44 43 41 40 38 37 36 36 35 36 36 37 38 39 39 40 40 40 39 38 37 37 36 37 37 37 38 38 39 40 40 41 40 39 38 37 37 37 37 37 37 36 35 34 33 32 31 29 28 28 28 28 29 30 31 31
71 72 72 72 72 72 71 69 68 66 64 62 60 58 56 55 54 53 52 52 51 51 50 49 48 48 47 46 45 44 43 42 40 39 37 36 35 35 35 35 36 37 38 38 39 39 40 40 40 38 37 36 35 35 36 37 37 39 39 40 40 40 39 38 37 36 36 36 36 35 35 34 33 32 31 30 29 28 27 26 26 27 28 29 30 31
Wind_Direction
263 263 262 261 260 260 259 258 258 258 259 260 261 262 262 262 263 263 264 264 265 265 265 265 265 265 265 266 266 267 267 268 268 268 269 269 270 270 271 271 272 272 272 273 273 273 273 273 274 274 274 275 276 277 277 278 278 279 279 279 280 280 280 281 281 281 281 282 282 282 282 283 283 283 283 283 283 283 283 283 282 282 281 281 280 279
263 264 263 262 261 260 259 259 258 259 259 260 262 263 263 263 263 264 264 265 265 265 265 265 266 266 266 266 267 267 268 269 269 269 270 270 271 271 271 272 272 272 273 273 273 274 274 274 275 275 275 276 277 277 278 278 279 279 279 280 280 280 280 281 281 281 281 281 282 282 282 282 282 282 282 282 282 282 282 282 281 281 280 280 279 278
262 264 264 263 262 261 260 260 260 260 260 261 262 263 264 264 264 264 265 265 265 265 265 266 266 266 267 267 267 268 269 269 270 270 271 271 272 272 272 273 273 273 274 274 274 274 275 275 275 276 276 277 277 278 278 279 279 279 279 280 280 280 280 280 280 281 281 281 281 281 282 282 282 282 282 282 282 282 281 281 281 280 280 279 278 277
260 263 265 265 264 263 262 262 262 262 262 262 263 264 264 265 265 265 265 265 265 266 266 266 267 267 268 268 268 269 269 270 270 271 271 272 272 272 273 273 273 274 274 274 274 275 275 275 276 276 277 277 278 278 278 279 279 279 279 279 279 279 280 280 280 280 280 281 281 281 281 281 281 281 281 281 281 281 281 281 280 280 279 278 277 276
260 263 266 266 265 264 263 263 264 264 264 264 264 264 265 265 265 265 266 266 266 266 266 267 267 268 268 269 269 269 270 270 270 271 271 271 272 272 272 273 273 273 274 274 274 275 275 275 276 276 277 277 278 278 278 278 279 279 279 279 279 279 279 280 280 280 280 280 280 281 281 281 281 281 281 281 281 281 280 280 279 279 278 277 276 276
260 264 266 267 266 265 265 265 265 266 265 265 265 265 265 265 265 266 266 266 267 267 267 267 268 268 268 269 269 270 270 270 270 271 271 271 271 272 272 272 272 273 273 273 274 274 275 275 276 276 277 277 277 278 278 278 278 278 278 279 279 279 279 279 280 280 280 280 280 280 281 281 281 281 281 281 280 280 280 279 278 278 277 276 276 275
261 264 266 267 267 267 267 267 267 267 266 266 266 266 266 266 266 266 266 267 267 267 268 268 268 268 268 269 269 269 270 270 270 270 271 271 271 271 271 272 272 272 273 273 274 274 275 275 276 276 276 277 277 277 277 278 278 278 278 279 279 279 279 280 280 280 280 280 280 280 281 281 281 280 280 280 280 279 279 278 278 277 276 276 275 274
261 263 265 267 269 270 270 269 268 267 267 266 266 266 266 266 267 267 267 268 268 268 268 268 268 268 268 269 269 269 269 270 270 270 270 270 271 271 271 271 272 272 272 273 273 274 274 275 275 275 276 276 276 277 277 277 278 278 278 279 279 279 279 280 280 280 280 280 280 281 281 280 280 280 280 280 279 279 278 278 277 277 276 275 275 274
261 263 264 267 271 273 272 270 269 268 267 266 266 267 267 267 268 268 268 268 268 268 268 268 268 268 269 269 269 269 269 269 270 270 270 270 270 271 271 271 272 272 272 273 273 274 274 274 275 275 275 276 276 277 277 277 278 278 278 279 279 279 280 280 280 280 280 280 280 280 280 280 280 280 279 279 279 278 278 277 277 276 276 275 275 274
263 264 266 269 271 273 273 271 270 268 267 267 267 267 268 268 268 269 269 269 268 268 268 268 268 268 269 269 269 269 269 269 269 270 270 270 270 271 271 271 272 272 272 273 273 273 274 274 274 275 275 276 276 277 277 278 278 278 279 279 279 279 280 280 280 280 280 280 280 280 280 280 280 279 279 279 278 278 278 277 277 276 276 275 274 274
266 266 267 269 271 272 272 271 270 269 268 268 267 267 267 268 268 268 269 268 268 268 268 268 268 268 269 269 269 269 269 270 270 270 270 270 270 271 271 271 272 272 272 273 273 273 274 274 274 275 275 276 276 277 277 278 278 279 279 279 279 280 280 280 280 280 280 280 280 280 280 280 279 279 279 279 278 278 277 277 276 276 275 275 274 273
267 268 268 269 270 271 271 271 271 270 269 269 268 268 268 268 268 268 268 268 268 268 268 268 268 269 269 269 269 270 270 270 270 270 270 271 271 271 271 272 272 272 273 273 273 274 274 275 275 276 276 277 277 278 278 278 279 279 279 279 280 280 280 280 280 280 280 280 280 280 279 279 279 279 278 278 278 277 277 276 276 276 275 275 274 273
270 270 270 270 271 271 272 272 272 272 271 270 270 270 269 269 269 269 269 269 269 269 269 269 270 270 270 270 270 270 271 271 271 271 271 272 272 272 272 273 273 273 274 274 274 275 275 276 276 277 277 277 278 278 278 279 279 279 279 279 280 280 280 280 280 280 280 280 279 279 279 279 279 278 278 278 277 277 277 276 276 275 275 274 274 273
274 274 273 273 273 273 273 274 274 274 273 273 272 272 271 271 271 271 270 270 270 271 271 271 271 271 271 271 271 272 272 272 272 273 273 273 273 273 274 274 274 275 275 276 276 276 277 277 277 278 278 278 278 279 279 279 279 279 279 279 279 279 279 279 279 279 279 279 279 279 279 278 278 278 278 277 277 277 276 276 275 275 275 274 274 273
279 278 277 276 276 276 276 276 276 276 275 275 275 274 274 274 273 273 273 273 273 273 273 273 273 273 273 273 273 273 273 274 274 274 275 275 275 275 276 276 276 277 277 277 277 277 278 278 278 278 278 278 279 279 279 279 279 279 279 279 279 279 279 279 279 279 279 279 278 278 278 278 278 278 277 277 277 276 276 275 275 275 274 274 274 273
288 285 283 282 281 281 280 280 279 279 279 278 278 277 277 276 276 276 276 276 276 276 276 275 275 275 275 275 275 275 276 276 276 276 277 277 277 277 277 278 278 278 278 278 278 278 278 278 278 279 278 279 279 279 279 279 279 279 279 279 279 279 279 279 279 279 279 278 278 278 278 278 277 277 277 277 276 276 276 275 275 275 274 274 274 273
297 294 292 290 289 287 286 285 284 283 283 282 282 281 280 280 280 280 279 279 279 279 278 278 278 279 279 278 278 278 278 278 279 279 279 279 279 279 279 279 279 279 279 279 279 279 279 279 279 279 279 278 279 279 279 279 279 279 279 279 279 279 279 279 279 279 279 278 278 278 278 278 277 277 277 276 276 276 276 275 275 275 274 274 274 274
302 300 298 296 295 293 292 291 289 288 287 287 286 286 285 284 284 284 283 283 283 282 282 282 282 282 282 282 281 281 281 281 281 281 281 280 280 280 280 280 280 279 279 279 279 279 279 279 279 279 279 279 279 279 279 279 279 279 279 279 279 279 279 279 279 279 278 278 278 278 278 277 277 277 277 276 276 276 276 275 275 275 275 275 274 274
305 303 301 300 299 297 296 294 293 292 292 291 290 290 289 288 288 287 286 286 286 285 285 285 285 284 284 283 283 283 282 282 282 281 281 281 281 280 280 280 280 280 280 279 279 279 279 279 279 279 279 279 279 279 279 279 279 279 279 279 279 279 279 279 279 278 278 278 278 278 278 277 277 277 277 277 276 276 276 276 276 275 275 275 275 275
305 304 302 301 300 298 297 296 295 294 293 292 291 291 290 289 288 288 287 286 286 285 285 285 284 284 284 283 283 283 283 282 282 282 281 281 281 281 281 281 280 280 280 280 280 280 280 280 280 280 280 280 280 280 280 280 280 279 279 279 279 279 279 279 278 278 278 278 278 278 278 278 277 277 277 277 277 277 276 276 276 276 276 275 275 275
305 304 302 301 300 298 297 296 295 294 293 292 292 291 290 289 289 288 287 287 286 286 286 285 285 285 285 284 284 284 284 283 283 283 282 282 282 282 281 281 281 281 281 281 281 281 280 280 280 280 280 280 280 280 280 280 279 279 279 279 279 279 279 279 279 279 279 278 278 278 278 278 278 278 277 277 277 277 277 277 276 276 276 276 276 276
304 303 302 301 300 299 297 297 296 295 294 293 292 292 291 290 290 289 289 288 288 287 287 287 286 286 285 285 285 284 284 284 283 283 283 283 282 282 282 282 282 281 281 281 281 281 281 281 281 281 281 281 280 280 280 280 280 280 280 280 279 279 279 279 279 279 279 279 279 279 279 278 278 278 278 278 278 278 277 277 277 277 277 277 276 276
305 304 303 301 300 299 298 297 296 295 294 293 292 292 291 290 290 289 288 288 287 287 286 286 285 285 284 284 284 284 283 283 283 283 283 282 282 282 282 282 282 282 282 282 282 282 282 282 281 281 281 281 281 281 281 281 281 280 280 280 280 280 280 280 280 280 280 280 280 279 279 279 279 279 279 279 279 278 278 278 278 278 277 277 277 277
307 306 305 303 302 301 300 299 298 297 296 295 294 293 292 291 290 290 289 288 288 287 287 286 286 285 285 284 284 284 284 284 284 284 284 284 284 284 284 284 284 284 283 283 283 283 283 283 282 282 282 282 282 282 282 282 281 281 281 281 281 281 281 281 281 281 281 281 280 280 280 280 280 280 280 279 279 279 279 278 278 278 278 278 277 277
309 307 306 305 304 303 302 301 300 299 298 297 296 295 295 294 293 292 291 291 290 290 289 289 289 288 288 287 287 287 286 286 286 286 286 286 286 286 286 286 286 285 285 285 285 284 284 284 284 283 283 283 283 283 283 283 283 282 282 282 282 282 282 282 282 282 282 281 281 281 281 281 280 280 280 280 279 279 279 279 278 278 278 278 277 277
308 307 306 305 304 303 302 301 301 300 299 298 297 297 296 295 294 294 293 292 292 291 291 291 290 290 289 289 289 288 288 288 287 287 287 287 287 287 287 287 287 286 286 286 286 285 285 285 285 284 284 284 284 284 284 284 284 284 284 283 283 283 283 283 283 282 282 282 282 281 281 281 281 280 280 280 279 279 279 278 278 278 278 278 277 277
307 306 305 304 303 302 301 300 299 299 298 297 297 296 295 295 294 293 292 292 292 291 291 290 290 290 289 289 289 288 288 288 287 287 287 287 287 287 287 287 287 287 287 287 286 286 286 286 285 285 285 285 285 285 284 284 284 284 284 284 284 284 284 283 283 283 282 282 282 281 281 281 280 280 280 279 279 278 278 278 278 278 278 277 277 276
306 305 304 303 302 301 301 300 299 298 297 297 296 295 295 294 293 293 292 292 292 291 290 290 290 289 289 289 289 288 288 288 287 287 288 287 287 287 287 287 287 287 287 287 287 286 286 286 286 286 286 285 285 285 285 285 285 285 285 285 284 284 284 283 283 282 282 282 281 281 281 280 280 280 279 279 278 278 278 278 278 277 277 277 276 276
305 305 304 303 302 301 300 299 299 298 297 297 296 295 295 294 293 292 292 292 291 291 290 290 290 289 289 289 289 288 288 288 287 288 288 287 287 287 287 287 287 287 287 287 287 287 286 286 286 286 286 286 286 286 286 285 285 285 285 285 284 284 284 283 283 282 282 281 281 281 280 280 279 279 278 278 278 277 277 277 277 277 277 277 276 276
305 304 303 303 302 301 300 299 299 298 297 297 296 295 294 294 293 292 292 292 291 290 290 290 289 289 289 289 289 288 288 288 288 288 288 287 287 287 287 287 287 287 287 287 287 287 287 287 286 286 286 286 286 286 286 286 286 285 285 285 284 284 283 283 282 282 281 281 281 280 280 279 279 278 278 278 277 277 277 277 277 277 277 276 276 275
305 304 303 303 302 301 300 300 299 298 297 297 296 295 295 294 293 293 292 292 291 291 290 290 290 289 289 289 289 288 288 288 288 288 288 287 287 287 287 287 287 287 287 286 286 287 287 287 287 287 286 286 286 286 286 286 285 285 285 284 284 283 283 282 282 281 281 281 280 280 279 279 278 278 277 277 277 277 277 277 277 277 276 276 275 275
305 304 303 303 302 301 301 300 299 298 298 297 296 296 295 294 294 293 293 292 292 291 291 290 290 290 290 289 289 289 288 288 288 288 288 287 287 287 287 287 287 287 286 286 286 286 286 287 287 287 287 286 286 286 286 286 285 285 284 284 283 282 282 282 281 281 280 280 280 279 278 278 277 277 277 277 277 277 277 277 276 276 276 275 275 275
305 304 304 303 302 302 301 300 300 299 298 298 297 296 296 295 294 294 293 293 292 292 291 291 291 290 290 289 289 289 288 288 288 288 288 287 287 287 287 287 286 286 286 286 286 286 286 286 287 287 287 287 287 287 286 286 285 284 284 283 283 282 282 281 281 280 280 279 279 278 277 277 277 276 276 276 277 277 277 276 276 276 275 275 275 275
305 305 304 304 303 302 302 301 300 299 299 298 297 297 296 295 295 294 294 293 293 292 292 291 291 290 290 290 289 289 288 288 288 288 288 287 287 287 287 286 286 286 286 286 286 286 286 286 286 287 287 287 287 287 286 286 285 284 284 283 283 282 282 281 281 280 279 279 278 277 276 276 276 276 276 276 276 276 276 276 276 275 275 275 275 275
306 305 305 304 303 303 302 301 300 300 299 298 298 297 297 296 295 295 294 294 293 292 292 291 291 291 290 290 290 289 289 289 289 288 288 287 287 287 287 287 286 286 286 286 286 286 286 286 286 286 287 287 287 287 286 286 285 285 284 284 283 283 282 281 280 279 278 278 277 276 276 275 275 275 275 276 276 276 276 276 276 275 276 276 276 276
306 306 305 304 304 303 302 302 301 300 300 299 298 297 297 296 296 295 294 294 293 293 292 292 291 291 290 290 290 290 289 289 289 288 288 288 287 287 287 287 287 287 287 286 286 286 286 286 286 286 287 287 287 287 286 286 286 285 285 285 284 283 282 281 280 279 278 277 276 275 275 275 275 275 275 275 275 275 275 275 276 276 276 276 277 277
307 306 305 305 304 303 303 302 301 300 300 299 299 298 297 297 296 296 295 295 294 294 293 292 292 291 291 291 290 290 290 290 289 289 288 288 288 288 288 288 287 287 287 287 286 286 286 286 286 286 286 286 286 286 286 286 286 286 285 285 284 283 282 281 280 278 277 276 275 275 274 274 274 274 275 275 275 275 275 275 276 276 277 277 278 278
307 306 306 305 304 304 303 302 302 301 301 300 300 299 299 298 298 297 297 296 295 295 294 294 293 293 292 292 291 291 291 290 290 289 289 289 289 288 288 288 288 288 287 287 287 287 287 287 287 287 286 286 286 286 286 287 287 286 285 285 284 282 281 280 279 278 277 276 275 275 274 274 274 274 274 274 274 274 275 275 276 277 277 278 278 278
308 307 306 306 305 305 304 304 303 303 302 302 301 301 300 300 299 299 298 298 297 296 296 295 294 294 293 293 293 292 292 291 291 290 290 290 289 289 289 289 288 288 288 287 287 287 287 287 287 287 286 286 286 286 286 286 287 286 286 284 283 281 280 279 278 277 276 276 275 275 275 275 274 274 274 274 274 274 275 276 276 277 277 278 278 278
309 308 307 307 307 306 306 305 305 305 304 304 303 303 302 302 301 301 300 299 298 298 297 296 295 295 294 294 294 293 292 292 291 291 291 290 290 290 290 289 289 288 288 287 287 287 287 286 286 286 286 286 286 286 286 286 286 286 285 284 283 281 279 278 277 276 276 275 275 275 275 275 275 275 275 275 275 275 276 277 277 277 277 278 278 278
310 309 309 308 308 308 307 307 307 306 306 305 305 305 304 304 303 302 301 300 300 299 298 297 297 296 295 295 294 294 293 293 292 292 291 291 291 290 290 289 289 288 288 288 287 287 286 286 286 286 286 286 286 286 286 286 286 286 285 284 283 281 279 278 277 276 275 275 275 276 276 276 276 276 275 276 276 276 277 277 278 278 278 278 278 278
311 310 310 310 310 309 309 308 308 308 307 307 307 306 306 305 304 304 303 302 301 300 299 298 298 297 296 296 295 294 294 293 293 292 292 292 291 291 290 290 289 288 288 287 287 287 286 286 286 285 285 286 286 286 286 286 286 286 285 284 283 281 280 278 277 276 275 275 276 276 277 277 277 276 276 277 277 278 278 278 278 278 278 278 277 277
312 312 311 311 311 311 310 310 310 309 309 308 308 307 307 306 305 304 303 303 302 301 300 299 299 298 297 297 296 295 294 294 293 293 293 292 292 291 290 290 289 288 288 287 287 286 286 286 286 285 286 286 286 286 287 287 286 286 285 284 283 282 281 279 278 276 276 276 277 277 278 278 277 277 277 278 278 278 278 278 278 278 278 277 277 277
313 313 312 312 312 311 311 311 311 310 310 310 309 308 308 307 306 305 304 303 302 301 301 300 299 299 298 297 296 296 295 294 294 294 293 293 292 291 291 290 289 288 288 287 287 286 286 286 286 286 286 286 286 287 287 287 286 286 285 284 283 282 281 280 279 278 278 278 278 278 278 278 278 278 278 279 279 279 279 279 278 278 277 277 276 276
314 313 313 313 313 313 312 312 312 312 311 310 310 309 308 308 307 306 305 304 303 302 301 301 300 299 299 298 297 296 296 295 294 294 293 293 292 291 291 290 289 288 287 287 286 286 286 286 286 286 287 287 287 287 287 287 286 286 285 284 283 282 282 281 280 280 280 280 280 279 279 278 278 279 279 280 280 279 279 279 278 278 277 276 275 275
314 314 314 314 314 314 314 313 313 313 312 311 311 310 309 308 307 306 305 304 304 303 302 302 301 300 299 299 298 297 296 296 295 295 294 293 292 291 290 289 288 287 287 286 286 286 287 287 287 287 287 287 287 287 287 287 286 286 285 284 283 282 282 281 281 282 282 282 281 280 280 279 279 280 280 280 280 280 279 278 278 277 276 275 275 274
315 315 315 315 315 315 315 314 314 313 313 312 311 311 310 309 308 307 306 305 304 304 303 302 301 301 300 299 299 298 297 297 296 295 294 293 292 291 290 289 288 287 287 286 286 286 286 287 287 288 288 288 288 287 287 286 286 286 285 284 283 283 282 282 283 283 284 283 282 281 280 280 280 281 281 281 280 280 279 278 277 276 275 275 274 273
316 316 316 316 316 316 316 316 315 314 314 313 312 311 310 309 308 308 307 306 305 304 303 303 302 301 301 300 300 299 298 298 297 296 295 294 293 291 290 288 287 287 286 286 286 286 286 287 287 287 288 288 288 287 287 287 286 286 285 284 283 283 283 283 284 284 285 284 283 282 281 281 281 281 281 281 280 279 278 277 276 275 274 274 274 273
317 317 317 318 318 317 317 317 316 315 315 314 313 312 311 310 309 308 307 306 305 305 304 303 303 302 301 301 300 300 299 298 298 297 296 295 293 292 290 289 287 286 286 286 286 286 286 286 286 287 287 287 288 288 287 287 287 286 285 284 284 284 284 284 285 285 285 284 283 283 282 282 282 281 281 280 280 279 278 276 275 275 274 274 273 273
318 319 319 319 319 319 318 318 317 316 315 314 313 312 311 310 309 308 307 307 306 305 304 304 303 302 302 301 301 300 299 299 298 298 297 296 294 292 291 289 288 287 287 286 286 286 286 286 287 287 287 287 288 288 288 288 287 286 285 284 284 284 285 286 286 286 285 284 283 283 282 282 282 281 280 280 279 278 276 275 274 273 273 273 273 273
320 320 320 320 320 320 319 318 317 317 316 315 314 313 312 311 310 309 308 307 306 305 304 304 303 303 302 301 301 300 300 299 299 298 297 296 295 293 292 291 290 289 288 288 288 287 287 287 287 287 287 288 288 289 289 289 288 287 286 285 285 285 286 287 287 286 285 284 283 283 282 282 281 280 280 279 278 276 275 274 273 272 272 272 273 273
Height
10425 10429 10436 10442 10445 10447 10448 10450 10453 10453 10452 10451 10450 10452 10453 10455 10455 10454 10454 10454 10454 10454 10453 10453 10453 10453 10453 10452 10452 10452 10451 10451 10450 10450 10450 10449 10448 10448 10447 10446 10445 10444 10443 10442 10442 10440 10440 10439 10438 10437 10437 10436 10435 10435 10433 10433 10432 10431 10430 10430 10428 10427 10426 10425 10424 10423 10422 10420 10420 10418 10417 10416 10415 10414 10413 10412 10412 10412 10412 10411 10411 10410 10410 10410 10410 10410
10418 10421 10427 10433 10438 10440 10440 10442 10445 10446 10445 10444 10443 10445 10447 10448 10448 10447 10447 10447 10447 10447 10446 10445 10445 10445 10445 10445 10445 10445 10444 10443 10443 10443 10442 10442 10440 10440 10438 10437 10437 10435 10435 10433 10433 10432 10431 10430 10430 10429 10428 10427 10427 10426 10425 10425 10423 10423 10422 10422 10420 10419 10418 10417 10415 10414 10413 10412 10411 10410 10408 10407 10407 10405 10405 10404 10403 10403 10403 10403 10403 10402 10402 10402 10402 10402
10414 10415 10420 10425 10430 10433 10433 10435 10437 10439 10439 10438 10438 10438 10440 10440 10441 10440 10440 10440 10439 10439 10438 10438 10438 10438 10438 10438 10438 10438 10437 10436 10435 10435 10434 10433 10432 10431 10430 10429 10428 10427 10426 10425 10425 10423 10423 10422 10421 10420 10420 10419 10418 10417 10417 10416 10415 10415 10414 10413 10412 10411 10410 10408 10407 10405 10404 10403 10402 10401 10400 10399 10398 10397 10396 10395 10395 10395 10395 10395 10394 10394 10394 10394 10394 10394
10408 10410 10413 10418 10423 10425 10427 10428 10431 10432 10433 10433 10433 10433 10434 10433 10433 10433 10433 10432 10432 10432 10432 10431 10431 10431 10430 10430 10430 10430 10430 10429 10428 10427 10427 10425 10424 10423 10422 10420 10420 10418 10418 10417 10416 10415 10415 10413 10413 10412 10412 10410 10410 10409 10408 10408 10407 10406 10405 10404 10403 10402 10400 10399 10398 10397 10395 10394 10393 10392 10391 10390 10390 10388 10388 10387 10387 10387 10387 10386 10386 10386 10386 10387 10387 10387
10402 10403 10407 10411 10415 10417 10420 10423 10425 10427 10427 10428 10428 10427 10427 10427 10425 10425 10425 10425 10425 10425 10424 10424 10424 10423 10423 10423 10423 10422 10422 10422 10421 10420 10418 10417 10416 10415 10413 10413 10412 10410 10410 10409 10408 10407 10407 10405 10405 10404 10403 10402 10402 10401 10400 10399 10398 10397 10397 10395 10394 10393 10392 10390 10389 10388 10387 10386 10385 10383 10383 10382 10381 10380 10380 10380 10379 10378 10378 10378 10378 10378 10378 10378 10378 10378
10397 10398 10400 10403 10407 10410 10413 10418 10420 10421 10422 10422 10421 10420 10420 10419 10418 10418 10418 10418 10418 10418 10417 10417 10417 10417 10416 10415 10415 10415 10415 10414 10413 10412 10410 10409 10408 10407 10406 10405 10403 10403 10402 10401 10400 10399 10398 10398 10397 10396 10395 10395 10393 10393 10392 10390 10390 10388 10387 10386 10385 10384 10383 10382 10380 10379 10378 10377 10376 10375 10374 10373 10373 10372 10372 10372 10371 10370 10370 10370 10370 10370 10370 10370 10370 10370
10394 10395 10395 10397 10398 10403 10409 10413 10415 10416 10416 10415 10414 10413 10413 10412 10412 10412 10412 10411 10411 10411 10410 10410 10410 10409 10409 10408 10408 10407 10407 10406 10405 10403 10402 10401 10400 10398 10398 10397 10395 10395 10393 10393 10392 10392 10391 10390 10389 10388 10387 10386 10385 10384 10383 10382 10380 10380 10378 10377 10376 10375 10374 10373 10372 10370 10369 10368 10367 10367 10366 10365 10365 10364 10363 10363 10363 10362 10362 10362 10362 10362 10362 10362 10362 10362
10392 10392 10392 10392 10393 10398 10404 10408 10410 10410 10410 10408 10407 10407 10406 10405 10405 10405 10405 10405 10405 10405 10404 10403 10402 10402 10402 10401 10400 10400 10399 10398 10397 10395 10394 10393 10392 10390 10389 10388 10387 10387 10386 10385 10385 10383 10383 10382 10382 10380 10379 10378 10377 10375 10374 10373 10372 10371 10370 10368 10368 10367 10365 10364 10363 10362 10361 10360 10359 10358 10358 10357 10357 10356 10355 10355 10355 10354 10354 10354 10354 10354 10354 10354 10354 10355
10388 10388 10388 10388 10390 10393 10398 10402 10403 10404 10404 10403 10402 10400 10399 10399 10398 10399 10399 10399 10398 10398 10398 10397 10395 10394 10393 10393 10393 10392 10392 10390 10388 10387 10385 10384 10383 10382 10381 10380 10380 10378 10378 10377 10377 10375 10375 10374 10373 10372 10370 10369 10368 10367 10366 10365 10364 10363 10362 10360 10359 10358 10357 10356 10355 10354 10353 10352 10352 10350 10350 10349 10348 10348 10347 10347 10347 10346 10346 10345 10345 10345 10345 10345 10346 10346
10386 10386 10385 10385 10387 10390 10393 10394 10396 10397 10398 10397 10395 10395 10394 10393 10392 10392 10392 10392 10391 10390 10390 10389 10388 10386 10385 10385 10385 10385 10383 10382 10380 10378 10377 10376 10375 10374 10373 10372 10371 10370 10370 10369 10368 10367 10367 10365 10364 10363 10362 10361 10360 10359 10358 10357 10356 10355 10353 10352 10351 10350 10349 10348 10347 10346 10345 10344 10343 10343 10342 10341 10340 10340 10339 10338 10338 10338 10337 10337 10337 10337 10337 10337 10337 10337
10383 10383 10383 10383 10384 10385 10387 10388 10388 10390 10391 10390 10389 10388 10388 10387 10387 10385 10385 10383 10382 10382 10382 10381 10380 10379 10378 10377 10377 10377 10376 10373 10372 10370 10369 10368 10367 10366 10365 10364 10363 10362 10361 10360 10360 10359 10358 10357 10356 10355 10354 10353 10352 10352 10350 10349 10348 10347 10346 10345 10343 10342 10342 10340 10339 10338 10338 10337 10336 10335 10334 10333 10333 10332 10331 10330 10330 10330 10329 10328 10328 10328 10328 10328 10328 10328
10379 10380 10380 10380 10380 10381 10382 10382 10382 10383 10383 10383 10382 10381 10380 10380 10380 10379 10377 10375 10375 10374 10373 10373 10372 10372 10371 10370 10369 10368 10367 10365 10363 10362 10360 10360 10359 10358 10357 10355 10355 10353 10353 10352 10352 10351 10350 10349 10348 10347 10347 10346 10345 10344 10343 10342 10340 10339 10338 10337 10336 10335 10334 10333 10332 10331 10330 10329 10328 10327 10327 10325 10325 10324 10323 10322 10322 10321 10320 10320 10320 10320 10319 10319 10319 10319
10376 10377 10377 10377 10377 10376 10376 10376 10376 10376 10376 10376 10375 10374 10373 10373 10373 10373 10371 10368 10368 10367 10367 10365 10365 10364 10363 10363 10362 10360 10359 10357 10355 10353 10353 10352 10352 10351 10350 10348 10347 10346 10345 10345 10343 10343 10342 10342 10340 10340 10339 10338 10337 10337 10335 10334 10333 10332 10331 10330 10328 10328 10327 10325 10325 10323 10322 10322 10320 10320 10318 10317 10317 10316 10315 10314 10313 10313 10312 10312 10311 10310 10310 10310 10310 10310
10372 10373 10373 10372 10372 10372 10372 10371 10370 10370 10370 10370 10369 10368 10367 10367 10366 10365 10364 10362 10361 10360 10360 10359 10357 10357 10356 10356 10355 10353 10351 10348 10347 10346 10346 10345 10344 10343 10342 10340 10338 10338 10338 10337 10336 10335 10334 10334 10333 10332 10332 10331 10330 10329 10328 10327 10326 10325 10323 10322 10322 10320 10319 10318 10317 10316 10315 10313 10313 10312 10310 10310 10308 10307 10307 10305 10305 10304 10303 10303 10302 10302 10301 10301 10300 10300
10369 10369 10368 10368 10368 10367 10367 10367 10366 10365 10364 10364 10363 10363 10362 10360 10360 10358 10358 10356 10355 10354 10354 10352 10351 10350 10349 10349 10348 10347 10344 10342 10340 10339 10338 10337 10337 10336 10335 10333 10331 10330 10330 10330 10328 10327 10327 10327 10326 10325 10324 10324 10323 10322 10321 10320 10318 10317 10317 10315 10314 10313 10312 10311 10310 10308 10307 10306 10305 10303 10302 10301 10300 10299 10298 10297 10296 10295 10294 10293 10293 10292 10292 10291 10291 10291
10367 10366 10365 10365 10365 10364 10363 10363 10362 10361 10360 10359 10358 10358 10357 10355 10354 10353 10352 10350 10350 10348 10348 10346 10345 10343 10342 10342 10342 10340 10337 10335 10333 10332 10332 10330 10328 10328 10328 10326 10324 10323 10323 10322 10321 10319 10319 10319 10318 10318 10317 10316 10315 10315 10313 10312 10311 10310 10309 10308 10307 10306 10305 10303 10302 10300 10299 10298 10297 10295 10294 10293 10292 10290 10289 10288 10287 10286 10285 10284 10283 10283 10282 10282 10281 10281
10365 10364 10363 10362 10362 10361 10360 10360 10358 10357 10357 10355 10355 10353 10352 10351 10350 10348 10347 10346 10345 10343 10342 10341 10339 10337 10335 10335 10335 10333 10332 10330 10327 10326 10325 10323 10321 10320 10321 10320 10317 10315 10315 10314 10313 10312 10312 10312 10311 10310 10310 10309 10308 10307 10306 10305 10303 10303 10302 10300 10300 10298 10297 10295 10294 10293 10291 10290 10288 10287 10285 10284 10282 10281 10280 10278 10277 10277 10275 10275 10273 10273 10272 10272 10272 10271
10362 10362 10361 10360 10359 10358 10357 10356 10355 10354 10353 10352 10350 10349 10348 10347 10345 10344 10343 10341 10340 10338 10336 10335 10334 10332 10330 10328 10327 10327 10327 10325 10322 10319 10318 10316 10314 10313 10313 10313 10310 10308 10307 10306 10305 10305 10304 10303 10303 10302 10302 10301 10300 10299 10298 10297 10296 10295 10294 10293 10292 10290 10289 10287 10286 10284 10283 10281 10280 10278 10277 10275 10273 10272 10270 10269 10268 10267 10266 10265 10264 10263 10263 10262 10262 10261
10360 10360 10358 10357 10357 10355 10354 10353 10352 10350 10349 10348 10347 10345 10343 10342 10341 10340 10338 10336 10335 10333 10331 10330 10328 10327 10325 10322 10320 10319 10320 10318 10316 10313 10312 10309 10307 10305 10306 10305 10303 10301 10300 10298 10297 10297 10297 10296 10295 10295 10294 10293 10292 10291 10290 10289 10288 10287 10286 10285 10283 10282 10280 10279 10277 10276 10274 10272 10270 10269 10267 10265 10263 10262 10261 10259 10258 10257 10256 10255 10254 10253 10253 10252 10252 10251
10358 10357 10356 10355 10353 10352 10350 10349 10348 10347 10345 10344 10343 10341 10339 10338 10337 10335 10333 10332 10330 10328 10327 10325 10323 10320 10319 10317 10314 10313 10313 10312 10309 10307 10304 10302 10300 10298 10298 10297 10295 10293 10292 10290 10290 10289 10288 10288 10287 10287 10286 10285 10284 10283 10282 10281 10280 10279 10278 10277 10275 10273 10272 10270 10268 10267 10265 10263 10262 10260 10258 10256 10254 10253 10252 10250 10248 10247 10247 10245 10245 10244 10243 10242 10242 10241
10355 10353 10353 10352 10350 10348 10347 10345 10344 10343 10342 10340 10338 10337 10335 10333 10332 10330 10328 10327 10325 10323 10321 10319 10317 10315 10313 10311 10308 10306 10305 10305 10302 10298 10297 10295 10293 10291 10290 10290 10288 10285 10283 10282 10282 10281 10281 10280 10279 10278 10278 10277 10276 10275 10273 10272 10272 10270 10269 10267 10266 10265 10263 10261 10260 10258 10256 10254 10252 10250 10248 10247 10245 10243 10242 10240 10239 10238 10237 10235 10235 10234 10233 10233 10232 10232
10352 10350 10349 10348 10347 10345 10343 10341 10340 10338 10337 10335 10333 10332 10330 10328 10326 10323 10322 10320 10319 10317 10315 10313 10311 10309 10308 10305 10302 10300 10298 10297 10295 10292 10290 10288 10285 10283 10283 10282 10280 10278 10275 10274 10273 10273 10272 10272 10270 10270 10269 10268 10267 10266 10265 10263 10262 10261 10260 10258 10257 10255 10253 10252 10250 10248 10247 10245 10243 10240 10238 10237 10235 10233 10232 10230 10229 10228 10227 10226 10225 10224 10223 10223 10223 10222
10349 10347 10346 10344 10343 10341 10339 10337 10335 10334 10333 10331 10329 10327 10325 10323 10321 10318 10317 10315 10313 10312 10310 10308 10306 10304 10302 10300 10297 10294 10292 10290 10288 10285 10283 10280 10277 10275 10275 10275 10273 10270 10267 10265 10265 10264 10263 10262 10262 10261 10260 10259 10258 10256 10255 10253 10252 10252 10250 10248 10247 10246 10244 10242 10241 10239 10237 10235 10233 10231 10229 10228 10226 10224 10223 10221 10220 10218 10217 10216 10215 10215 10214 10214 10213 10213
10345 10343 10342 10340 10338 10337 10335 10333 10330 10329 10327 10325 10323 10322 10320 10318 10316 10313 10312 10310 10307 10305 10303 10302 10300 10297 10295 10293 10291 10288 10285 10283 10280 10278 10275 10272 10269 10267 10267 10266 10264 10261 10257 10256 10256 10255 10253 10252 10252 10252 10251 10250 10248 10247 10245 10244 10243 10242 10240 10239 10238 10236 10235 10233 10232 10230 10227 10225 10223 10222 10220 10218 10217 10215 10213 10212 10210 10208 10207 10207 10206 10206 10205 10205 10205 10204
10340 10338 10337 10335 10333 10331 10329 10327 10325 10323 10321 10319 10317 10315 10313 10311 10308 10307 10304 10302 10300 10298 10296 10294 10292 10289 10287 10286 10283 10280 10277 10275 10273 10270 10267 10263 10261 10258 10258 10257 10255 10252 10248 10246 10245 10245 10243 10242 10241 10241 10241 10240 10238 10237 10236 10235 10233 10232 10231 10230 10228 10227 10225 10223 10222 10220 10218 10216 10214 10213 10211 10210 10208 10206 10205 10203 10201 10200 10198 10198 10197 10197 10197 10197 10196 10195
10337 10335 10333 10331 10328 10327 10325 10322 10320 10318 10315 10313 10311 10308 10307 10304 10302 10299 10297 10295 10293 10291 10288 10286 10283 10282 10280 10278 10276 10272 10269 10267 10265 10262 10259 10256 10253 10250 10248 10248 10247 10243 10239 10236 10235 10235 10233 10232 10231 10231 10231 10230 10229 10228 10227 10226 10225 10223 10222 10221 10219 10218 10216 10214 10212 10210 10208 10207 10205 10203 10202 10200 10199 10197 10196 10194 10193 10192 10190 10190 10189 10189 10189 10188 10188 10187
10332 10330 10328 10327 10325 10322 10320 10318 10315 10313 10310 10308 10306 10303 10301 10298 10295 10292 10290 10288 10286 10284 10282 10279 10276 10273 10272 10271 10268 10265 10262 10260 10257 10253 10252 10249 10246 10242 10239 10238 10237 10235 10230 10227 10225 10224 10223 10222 10221 10220 10220 10220 10219 10218 10218 10217 10216 10215 10213 10212 10210 10209 10207 10205 10203 10202 10200 10198 10197 10195 10193 10192 10190 10189 10187 10186 10185 10183 10182 10182 10182 10182 10181 10180 10180 10179
10328 10326 10323 10322 10320 10317 10315 10312 10310 10307 10305 10302 10300 10297 10295 10293 10289 10285 10282 10281 10279 10277 10274 10272 10269 10267 10264 10262 10260 10258 10255 10252 10248 10246 10245 10242 10238 10235 10232 10231 10229 10226 10222 10218 10215 10214 10213 10213 10212 10211 10210 10210 10210 10210 10209 10208 10207 10206 10205 10203 10202 10200 10198 10197 10195 10193 10191 10189 10188 10187 10185 10183 10182 10181 10179 10178 10177 10176 10175 10175 10175 10174 10174 10173 10172 10172
10323 10321 10318 10316 10314 10312 10309 10307 10304 10302 10299 10296 10293 10291 10288 10287 10283 10279 10276 10274 10272 10270 10266 10264 10262 10260 10257 10255 10253 10250 10248 10245 10241 10239 10237 10235 10230 10227 10225 10223 10221 10218 10215 10211 10207 10204 10203 10203 10203 10202 10201 10200 10200 10200 10200 10200 10199 10198 10197 10195 10193 10192 10190 10188 10186 10184 10182 10181 10180 10178 10177 10175 10174 10173 10172 10170 10169 10168 10168 10168 10168 10167 10167 10166 10165 10165
10318 10315 10313 10310 10308 10306 10303 10300 10298 10295 10292 10290 10287 10284 10282 10280 10277 10273 10270 10267 10265 10262 10259 10257 10254 10252 10250 10248 10245 10243 10240 10237 10235 10233 10231 10227 10223 10219 10218 10216 10213 10210 10208 10204 10200 10195 10193 10193 10193 10194 10193 10192 10192 10192 10192 10191 10190 10190 10188 10187 10185 10183 10182 10180 10178 10176 10175 10173 10172 10170 10169 10168 10167 10165 10164 10163 10162 10162 10162 10161 10161 10160 10160 10159 10158 10158
10313 10310 10307 10304 10302 10300 10297 10294 10291 10288 10286 10283 10280 10277 10275 10272 10269 10267 10263 10261 10258 10255 10252 10249 10247 10245 10243 10241 10238 10235 10232 10229 10227 10226 10223 10220 10215 10212 10210 10208 10205 10202 10200 10198 10193 10188 10183 10182 10182 10184 10185 10183 10183 10183 10183 10183 10182 10182 10180 10179 10177 10176 10174 10172 10170 10168 10167 10166 10165 10163 10162 10160 10159 10158 10157 10156 10155 10155 10155 10155 10155 10154 10153 10153 10152 10152
10307 10304 10302 10298 10296 10293 10290 10287 10285 10282 10278 10276 10273 10270 10268 10265 10262 10259 10257 10253 10251 10248 10245 10242 10240 10237 10235 10233 10231 10228 10224 10222 10220 10218 10216 10212 10208 10204 10203 10201 10198 10194 10192 10190 10187 10183 10178 10173 10172 10173 10174 10175 10175 10175 10175 10175 10175 10173 10172 10171 10170 10168 10167 10165 10163 10162 10160 10159 10158 10156 10155 10153 10152 10151 10150 10150 10149 10149 10149 10148 10148 10148 10147 10147 10145 10145
10301 10298 10295 10292 10290 10287 10283 10281 10278 10275 10272 10269 10266 10263 10260 10258 10255 10252 10249 10247 10244 10241 10238 10235 10232 10230 10227 10225 10223 10220 10218 10215 10212 10210 10208 10205 10200 10197 10195 10193 10190 10187 10184 10182 10180 10177 10173 10168 10165 10163 10163 10165 10165 10166 10167 10167 10167 10166 10165 10163 10162 10161 10160 10158 10157 10155 10153 10152 10151 10150 10148 10147 10146 10145 10144 10144 10143 10143 10143 10143 10142 10142 10141 10140 10140 10140
10295 10292 10289 10286 10283 10280 10277 10274 10271 10268 10265 10262 10259 10256 10253 10250 10248 10245 10242 10239 10237 10234 10231 10228 10225 10222 10220 10217 10215 10212 10210 10208 10205 10203 10200 10197 10193 10190 10187 10185 10182 10180 10177 10174 10172 10169 10167 10163 10160 10157 10155 10155 10156 10157 10158 10158 10158 10158 10157 10157 10155 10154 10153 10152 10150 10148 10147 10146 10144 10143 10142 10141 10140 10140 10139 10138 10138 10138 10137 10137 10137 10136 10135 10135 10135 10135
10289 10286 10283 10280 10277 10273 10270 10267 10264 10261 10258 10255 10252 10249 10247 10243 10241 10238 10235 10232 10230 10227 10224 10222 10218 10216 10213 10210 10207 10204 10202 10200 10198 10195 10192 10189 10185 10182 10179 10177 10175 10173 10170 10167 10164 10162 10159 10157 10154 10152 10150 10148 10148 10149 10150 10150 10150 10150 10150 10150 10148 10148 10147 10145 10144 10142 10141 10140 10138 10137 10136 10135 10135 10134 10134 10133 10133 10133 10132 10132 10131 10130 10130 10130 10130 10130
10282 10279 10276 10273 10270 10267 10263 10260 10257 10254 10252 10248 10245 10243 10240 10237 10234 10231 10228 10225 10222 10219 10217 10213 10211 10208 10206 10203 10200 10197 10193 10192 10190 10187 10184 10181 10178 10175 10172 10169 10167 10165 10163 10160 10157 10155 10152 10150 10148 10147 10145 10142 10141 10141 10142 10143 10143 10143 10143 10143 10142 10142 10140 10139 10138 10137 10135 10133 10133 10132 10131 10130 10130 10130 10129 10129 10128 10128 10127 10127 10126 10126 10125 10125 10125 10125
10276 10273 10270 10267 10263 10260 10257 10253 10250 10248 10245 10242 10238 10236 10233 10230 10227 10223 10221 10218 10215 10212 10208 10205 10203 10200 10198 10195 10193 10190 10187 10184 10182 10179 10176 10173 10170 10168 10165 10162 10160 10158 10155 10153 10150 10148 10146 10143 10142 10140 10139 10137 10136 10135 10135 10136 10137 10137 10137 10137 10136 10135 10135 10133 10132 10131 10129 10128 10127 10127 10126 10126 10125 10125 10125 10125 10124 10123 10123 10122 10122 10121 10121 10120 10120 10120
10270 10266 10263 10260 10257 10253 10250 10247 10243 10241 10238 10235 10232 10228 10226 10223 10220 10217 10213 10210 10207 10203 10200 10197 10195 10192 10190 10187 10185 10182 10180 10177 10173 10171 10168 10165 10163 10160 10158 10155 10152 10150 10148 10146 10143 10141 10139 10137 10136 10134 10133 10132 10130 10130 10129 10130 10130 10131 10131 10130 10130 10130 10129 10128 10127 10125 10124 10123 10122 10122 10121 10121 10121 10121 10121 10120 10120 10119 10118 10118 10117 10117 10117 10116 10115 10115
10263 10259 10256 10253 10250 10247 10243 10240 10237 10233 10230 10227 10224 10221 10218 10215 10212 10208 10205 10202 10198 10195 10192 10189 10187 10184 10182 10180 10177 10175 10172 10169 10166 10163 10161 10158 10156 10153 10151 10148 10145 10143 10142 10140 10137 10135 10133 10132 10130 10128 10127 10126 10125 10125 10125 10125 10125 10125 10125 10124 10124 10124 10124 10123 10122 10120 10119 10118 10117 10117 10117 10117 10117 10117 10117 10116 10115 10115 10114 10113 10113 10113 10112 10111 10110 10110
10256 10253 10249 10246 10243 10240 10236 10233 10230 10227 10223 10220 10217 10213 10210 10207 10203 10200 10197 10193 10190 10187 10184 10181 10178 10176 10174 10172 10170 10167 10164 10162 10159 10157 10154 10152 10149 10147 10145 10142 10139 10137 10135 10133 10132 10130 10128 10127 10125 10123 10123 10121 10120 10120 10120 10120 10120 10120 10119 10118 10118 10118 10119 10118 10118 10116 10115 10113 10113 10112 10112 10112 10112 10112 10112 10112 10111 10110 10110 10110 10109 10108 10107 10107 10106 10105
10250 10246 10242 10239 10236 10233 10230 10226 10223 10220 10216 10213 10209 10206 10202 10199 10196 10192 10188 10185 10182 10179 10176 10173 10171 10168 10167 10165 10162 10160 10158 10155 10153 10150 10148 10145 10143 10141 10138 10136 10133 10131 10129 10127 10125 10124 10123 10122 10120 10119 10118 10117 10116 10115 10115 10115 10115 10115 10114 10113 10113 10113 10113 10113 10113 10112 10110 10109 10108 10108 10108 10108 10108 10107 10107 10107 10107 10106 10106 10105 10104 10103 10103 10102 10102 10101
10243 10240 10236 10233 10229 10226 10223 10219 10216 10213 10209 10206 10202 10198 10195 10192 10188 10184 10181 10177 10174 10171 10168 10166 10163 10161 10158 10157 10155 10153 10152 10149 10147 10144 10142 10140 10137 10135 10133 10130 10128 10125 10123 10122 10120 10118 10118 10117 10116 10115 10114 10113 10112 10111 10110 10110 10110 10110 10110 10108 10108 10107 10107 10108 10108 10108 10107 10105 10105 10105 10104 10103 10103 10103 10102 10102 10102 10102 10102 10100 10100 10099 10098 10097 10097 10097
10238 10234 10230 10227 10223 10220 10217 10213 10210 10206 10203 10199 10195 10192 10188 10185 10181 10177 10173 10170 10167 10164 10162 10159 10157 10154 10152 10150 10148 10147 10145 10143 10141 10139 10137 10135 10132 10130 10127 10125 10123 10120 10118 10117 10115 10113 10113 10112 10111 10110 10110 10109 10108 10107 10107 10106 10106 10105 10105 10104 10103 10103 10102 10103 10103 10103 10103 10102 10102 10101 10100 10100 10098 10098 10098 10098 10098 10098 10097 10096 10095 10094 10093 10093 10092 10092
10232 10228 10225 10222 10218 10214 10210 10207 10203 10200 10196 10192 10188 10185 10181 10178 10174 10170 10167 10163 10160 10158 10155 10152 10150 10148 10145 10143 10142 10141 10139 10138 10136 10134 10132 10130 10127 10125 10122 10120 10118 10116 10113 10112 10110 10108 10108 10107 10107 10107 10106 10105 10105 10103 10103 10102 10102 10101 10100 10100 10099 10098 10098 10098 10098 10098 10098 10098 10098 10097 10097 10095 10094 10093 10093 10093 10093 10093 10092 10092 10090 10090 10089 10088 10088 10088
10227 10223 10219 10216 10212 10208 10205 10201 10197 10193 10190 10186 10182 10178 10175 10171 10167 10164 10160 10157 10154 10152 10149 10147 10144 10142 10139 10138 10137 10135 10133 10132 10131 10130 10127 10125 10123 10120 10118 10116 10113 10111 10109 10107 10106 10104 10103 10103 10102 10102 10102 10102 10101 10100 10099 10098 10097 10097 10096 10095 10095 10094 10093 10093 10093 10093 10093 10094 10093 10093 10092 10091 10090 10089 10089 10089 10089 10088 10088 10087 10086 10085 10085 10084 10084 10084
10222 10218 10214 10210 10207 10203 10199 10195 10191 10187 10183 10180 10176 10172 10168 10165 10161 10158 10155 10152 10148 10145 10143 10141 10138 10136 10134 10132 10130 10129 10128 10127 10125 10125 10123 10121 10118 10117 10114 10112 10109 10107 10105 10103 10102 10100 10099 10098 10098 10098 10098 10098 10097 10097 10096 10095 10094 10093 10092 10092 10090 10090 10089 10089 10089 10089 10089 10089 10089 10088 10087 10087 10085 10085 10085 10085 10085 10084 10083 10083 10082 10082 10081 10080 10080 10080
10216 10212 10208 10205 10200 10197 10193 10189 10185 10181 10177 10173 10170 10166 10163 10159 10155 10152 10149 10146 10143 10140 10138 10136 10133 10132 10129 10127 10125 10123 10122 10121 10120 10119 10118 10117 10115 10112 10110 10108 10105 10103 10102 10100 10098 10097 10096 10095 10095 10094 10094 10094 10093 10093 10092 10092 10090 10089 10088 10087 10086 10085 10085 10085 10085 10085 10085 10085 10084 10083 10083 10082 10082 10081 10081 10080 10080 10080 10080 10079 10078 10078 10077 10076 10076 10076
10210 10206 10202 10198 10195 10190 10187 10182 10178 10175 10171 10167 10163 10160 10157 10153 10150 10147 10143 10141 10138 10135 10133 10130 10128 10127 10124 10122 10121 10119 10117 10115 10115 10114 10113 10112 10110 10108 10107 10104 10102 10100 10098 10097 10095 10093 10092 10092 10091 10091 10091 10090 10090 10089 10088 10088 10087 10086 10085 10083 10082 10081 10081 10081 10081 10081 10081 10080 10079 10078 10078 10077 10077 10077 10077 10077 10077 10076 10076 10075 10075 10074 10073 10073 10072 10072
10205 10200 10197 10192 10188 10184 10180 10176 10172 10168 10165 10161 10158 10155 10152 10148 10145 10142 10138 10136 10133 10130 10128 10126 10123 10122 10120 10118 10116 10115 10113 10111 10110 10109 10108 10107 10105 10103 10102 10100 10098 10097 10095 10093 10092 10090 10089 10088 10088 10088 10088 10087 10087 10086 10085 10084 10083 10082 10080 10079 10078 10077 10077 10077 10077 10077 10077 10076 10075 10074 10073 10073 10073 10073 10073 10072 10072 10072 10072 10072 10072 10070 10070 10069 10068 10068
10198 10195 10190 10187 10182 10178 10174 10170 10166 10162 10159 10155 10152 10149 10147 10143 10141 10138 10135 10132 10128 10126 10123 10122 10119 10117 10115 10113 10112 10110 10108 10107 10105 10105 10103 10102 10101 10099 10098 10096 10095 10093 10091 10090 10088 10087 10085 10085 10084 10084 10085 10084 10083 10082 10082 10080 10079 10078 10077 10075 10074 10073 10073 10073 10073 10073 10073 10072 10071 10070 10070 10069 10069 10069 10069 10068 10068 10069 10069 10069 10068 10068 10067 10066 10065 10065
10193 10188 10185 10180 10176 10172 10168 10164 10160 10157 10153 10150 10147 10144 10142 10138 10136 10133 10130 10127 10124 10122 10119 10117 10115 10113 10110 10109 10107 10106 10104 10103 10102 10100 10099 10098 10097 10095 10093 10092 10090 10089 10087 10086 10085 10083 10082 10081 10080 10080 10081 10082 10081 10080 10078 10077 10075 10073 10072 10071 10070 10070 10070 10070 10069 10069 10068 10068 10067 10067 10066 10065 10065 10065 10065 10065 10065 10065 10065 10065 10065 10065 10064 10063 10062 10062